Погода в Сатисе

Россия / Нижегородская область     54°55′21″N   43°13′49″E
темп.,
°C
ветер,
м/с
пор.,
м/с
влажн.,
%
обл.,
%
осадки,
мм/ч
давл.,
гПа
погр.,
м
5 декабря, вс
вс500:00−3з597889 0.0 1012849
03:00−4з497867 0.0 1013790
06:00−3зюз37745 0.0 1014625
09:00−3зюз26795 0.0 1016391
12:00−2юз4675100 0.0 1016551
15:00−1юз3685100 0.0 1017487
18:00−2юз259289 0.0 1018248
21:00−3юз24946 0.0 1019100
6 декабря, пн
пн600:00−3юз22885 0.0 102042
03:00−3юз22895 0.0 102141
06:00−4ююз228839 0.0 102218
09:00−3ю2385100 0.0 102480
12:00−2ю2477100 0.0 1024228
15:00−2ююв2477100 0.0 1025144
18:00−2юв3679100 0.0 1026202
21:00−2юв3876100 0.0 1026325
7 декабря, вт
вт700:00−2юв41174100 0.0 1026384
03:00−3юв5127680 0.0 1026425
06:00−3юв61476100 0.0 1025534
09:00−2ююв61570100 0.0 1024656
12:00−1ююв71665100 0.0 1022692
15:00−2ююв71794100 2.3 1020610
18:00−1ююв71694100 2.4 1018646
21:000ююв71696100 4.1 1017608
8 декабря, ср
ср800:00+2ю71796100 3.2 1016628
03:00+2ю71695100 6.7 1016588
06:00+2ю61692100 0.3 1015604
09:00+2ю7168993 0.3 1016555
12:00+3ю61588100 0.0 1017561
15:00+2ю51291100 0.0 1017385
18:00+2ююв51293100 0.0 1018345
21:00+2ююв51292100 0.0 1018338
9 декабря, чт
чт900:00+2ююв51292100 0.0 1018366
03:00+1ююв41293100 0.0 1018363
06:00+1ююв41093100 0.0 1018333
09:00+1ююв4119363 0.0 1018381
12:00+1юв4991100 0.0 1018357
15:00+1ююв4992100 0.0 1018319
18:000ююв4993100 0.0 1019284
21:000юв3793100 0.0 1019246